[[{"header":{"parameterUnit":"m.s-1","parameterCategory":1,"la1":30.2991,"la2":30.254,"lo1":-89.0895,"lo2":-89.0444,"dy":0.0017,"dx":0.0017,"nx":28,"ny":28,"refTime":"2023-08-26T03:00:00:Z","depth":0,"parameterNumber":2,"parameterNumberName":"U-component_of_WINDS"},"data":[0,0,0,0,0,0,0,0,0,0,0,0,0,0,0,0,0,0,0,0,0,0,0,0,0,0,0,0,0,0,0,0,0,0,0,0,0,0,0,0,0,0,0,0,0,0,0,0,0,0,0,0,0,0,0,0,0,0,2.6967,2.6966,0,2.6956,2.6956,2.6956,2.6841,2.6838,2.6836,2.6833,2.6825,2.6828,2.683,0,0,0,0,0,0,0,0,0,0,0,0,0,2.6892,2.6894,2.6967,2.6966,2.6966,2.6956,2.6956,2.6956,2.6842,2.6838,2.6835,2.6832,2.6825,2.6828,2.683,0,0,0,0,0,0,0,0,0,0,0,0,0,2.6907,2.6895,2.6967,2.6908,2.6903,2.6956,2.6956,2.6956,2.6843,2.6838,2.6834,2.683,2.6824,2.6827,2.6831,2.6941,0,0,2.6842,2.6844,0,0,0,0,0,0,0,0,2.6907,2.691,2.6917,2.6912,2.6906,2.6895,2.6927,2.6951,2.6844,2.6866,2.6833,2.6828,2.6852,2.6854,2.6861,2.694,2.694,2.6843,2.6845,2.6847,2.6848,0,0,0,0,0,0,0,2.6906,2.691,2.6962,2.6917,2.6911,2.6884,2.6881,2.6931,2.6884,2.6863,2.6855,2.6855,2.6849,2.6858,2.686,2.694,2.6843,2.6846,2.6848,2.685,2.7111,2.7115,0,0,0,0,0,0,2.6912,2.691,2.6963,2.6962,2.6896,2.6889,2.6886,2.6903,2.6883,2.6875,2.6859,2.685,2.6854,2.6856,2.6859,2.6988,2.6846,2.685,2.6852,2.7106,2.7112,2.7117,0,0,0,0,0,0,2.6911,2.6918,2.6963,2.6934,2.6937,2.6894,2.6915,2.6906,2.6914,2.6879,2.6871,2.6877,2.685,2.6854,2.6922,2.6986,2.6852,2.6855,2.7101,2.7108,2.7114,2.7246,0,0,0,0,0,0,2.6909,2.6918,2.6958,2.6936,2.6939,2.7025,2.6919,2.6908,2.6921,2.6909,2.6894,2.6887,2.6847,2.6917,2.6925,2.6989,2.6858,2.7095,2.7104,2.7112,2.7235,2.7256,2.7274,0,0,0,0,0,2.6907,2.6996,2.6961,2.6968,2.6989,2.7029,2.7031,2.6982,2.6926,2.6967,2.6945,2.6887,2.6978,2.6924,2.6933,2.6999,2.709,2.7101,2.7112,2.7227,2.7252,2.7274,0,0,0,0,0,0,2.7028,2.6992,2.6953,2.7036,2.7037,2.7009,2.7059,2.7011,2.7027,2.7016,2.6956,2.6954,2.7031,2.7021,2.6963,2.7105,2.7024,2.7037,2.7109,2.7133,2.7152,2.7153,2.6861,0,0,0,0,0,2.7064,2.7099,2.7065,2.7143,2.7145,2.7102,2.7118,2.7081,2.7079,2.7078,2.7061,2.7062,2.7091,2.7111,2.7135,2.7233,2.723,2.7283,2.7302,2.7319,2.7331,2.7384,2.7408,2.7152,2.7152,2.7151,0,0,2.714,2.7124,2.715,2.7167,2.7162,2.7201,2.7103,2.7147,2.7176,2.7085,2.7148,2.7136,2.7133,2.7217,2.7253,2.7212,2.7401,2.7332,2.7345,2.7349,2.7398,2.7422,2.7444,2.7159,2.7158,2.7156,0,0,2.7298,2.7288,2.7353,2.735,2.7345,2.7316,2.7332,2.7313,2.7301,2.7363,2.7296,2.733,2.738,2.7382,2.7389,2.755,2.7499,2.756,2.7662,2.7715,2.7735,2.7752,2.7812,2.7834,2.7572,2.7572,2.7572,0,2.7392,2.7446,2.7392,2.7441,2.7452,2.7371,2.7437,2.7438,2.7441,2.7451,2.7404,2.7467,2.7459,2.7544,2.7583,2.7591,2.7609,2.7561,2.7736,2.7753,2.7769,2.7825,2.7847,2.758,2.7579,2.7578,2.7577,0,2.7565,2.7604,2.7656,2.7661,2.7677,2.7735,2.7691,2.7714,2.7676,2.7653,2.7719,2.7707,2.7729,2.7746,2.7709,2.7826,2.7801,2.7746,2.7664,2.7802,2.7854,2.7875,2.759,2.7588,2.7585,2.7584,0,0,2.7798,2.7773,2.7793,2.7795,2.7784,2.7814,2.7869,2.7889,2.7912,2.7917,2.7963,2.8008,2.7958,2.7967,2.793,2.7976,2.8107,2.7916,2.7915,2.7953,2.8238,2.8281,2.8306,2.8073,2.8076,2.8079,2.8239,0,2.7951,2.8042,2.7995,2.8093,2.813,2.8055,2.8103,2.8102,2.8083,2.8112,2.8091,2.8125,2.8055,2.806,2.8102,2.8082,2.8164,2.807,2.8117,2.8119,2.8121,2.8333,2.8377,2.8528,2.8258,2.8262,2.8264,0,2.8141,2.8155,2.8257,2.8241,2.8254,2.8298,2.8315,2.8343,2.8342,2.8324,2.8336,2.8288,2.8343,2.8261,2.8336,2.8274,2.829,2.8284,2.8288,2.8292,2.8201,2.8344,2.8575,2.8599,2.8295,2.8293,2.829,0,2.8304,2.8348,2.8414,2.8418,2.8401,2.8434,2.8429,2.8423,2.8439,2.8454,2.8464,2.8485,2.8498,2.8516,2.8477,2.842,2.8559,2.8473,2.8548,2.855,2.8582,2.8581,2.8821,2.859,2.859,2.8589,2.8589,0,2.8481,2.8546,2.8487,2.8529,2.8601,2.8547,2.8621,2.8607,2.8603,2.8642,2.8578,2.8617,2.8561,2.8595,2.8564,2.8633,2.8639,2.8628,2.862,2.8635,2.8637,2.8646,2.8635,2.8595,2.8594,2.8593,2.8592,0,2.8674,2.8637,2.8706,2.8684,2.868,2.8734,2.8716,2.8755,2.8731,2.8782,2.879,2.8754,2.879,2.8753,2.8786,2.8766,2.8859,2.8834,2.886,2.8853,2.8932,2.8926,2.9188,2.922,2.8967,2.897,2.8972,0,2.879,2.8839,2.8823,2.8844,2.8842,2.8877,2.8893,2.8843,2.8863,2.8867,2.8906,2.8936,2.8958,2.902,2.8998,2.9024,2.9001,2.909,2.9004,2.9019,2.9005,2.9003,2.9009,2.9109,2.9112,2.9114,2.9116,0,2.9001,2.8981,2.9006,2.9026,2.9047,2.9061,2.9069,2.9091,2.9039,2.9065,2.9101,2.9118,2.9153,2.9185,2.9205,2.9201,2.9152,2.9143,2.9163,2.918,2.9193,2.9189,2.891,2.9138,2.9136,2.9134,2.9133,2.9132,2.9161,2.9202,2.9197,2.9228,2.9229,2.924,2.9275,2.9256,2.9285,2.9309,2.9278,2.9324,2.9323,2.9344,2.9347,2.9383,2.9345,2.9372,2.9379,2.9387,2.94,2.9186,2.9386,2.9385,2.9384,2.9384,2.9383,0,2.937,2.9364,2.9393,2.9407,2.9432,2.9382,2.939,2.9415,2.9455,2.9458,2.9481,2.9524,2.9556,2.9537,2.9564,2.9597,2.9575,2.9606,2.9604,2.9604,2.9431,2.9413,2.9623,2.9623,2.9623,2.9623,2.9623,2.9623,2.9482,2.9549,2.9529,2.9597,2.959,2.9633,2.9642,2.9652,2.9655,2.9705,2.9731,2.9718,2.9713,2.974,2.9767,2.9761,2.9775,2.9815,2.9801,2.964,2.9616,2.9594,2.9576,2.9818,2.9818,2.9971,2.9972,2.9974]},{"header":{"parameterUnit":"m.s-1","parameterCategory":1,"la1":30.2991,"la2":30.254,"lo1":-89.0895,"lo2":-89.0444,"dy":0.0017,"dx":0.0017,"nx":28,"ny":28,"refTime":"2023-08-26T03:00:00:Z","depth":0,"parameterNumber":3,"parameterNumberName":"V-component_of_WINDS"},"data":[0,0,0,0,0,0,0,0,0,0,0,0,0,0,0,0,0,0,0,0,0,0,0,0,0,0,0,0,0,0,0,0,0,0,0,0,0,0,0,0,0,0,0,0,0,0,0,0,0,0,0,0,0,0,0,0,0,0,1.7453,1.7454,0,1.75,1.7501,1.7501,1.749,1.7489,1.7488,1.7488,1.7532,1.7534,1.7536,0,0,0,0,0,0,0,0,0,0,0,0,0,1.7352,1.7354,1.7453,1.7454,1.7455,1.75,1.7501,1.7501,1.749,1.7489,1.7488,1.7487,1.7532,1.7534,1.7536,0,0,0,0,0,0,0,0,0,0,0,0,0,1.7397,1.7354,1.7453,1.7455,1.7455,1.75,1.7501,1.7501,1.7491,1.7489,1.7488,1.7487,1.7531,1.7534,1.7537,1.7582,0,0,1.7546,1.7547,0,0,0,0,0,0,0,0,1.7394,1.74,1.7454,1.7455,1.7455,1.7488,1.7481,1.7528,1.7491,1.7477,1.7488,1.7486,1.7518,1.7522,1.7534,1.7584,1.7586,1.7546,1.7548,1.7549,1.755,0,0,0,0,0,0,0,1.7391,1.7398,1.7472,1.7455,1.7456,1.7452,1.7457,1.749,1.7504,1.7478,1.7478,1.7483,1.7518,1.7531,1.7535,1.7586,1.7546,1.7549,1.7551,1.7552,1.7675,1.7677,0,0,0,0,0,0,1.7388,1.7396,1.747,1.7473,1.7421,1.7455,1.746,1.7479,1.7504,1.7507,1.7484,1.7483,1.7526,1.7531,1.7536,1.7591,1.7549,1.7552,1.7554,1.7674,1.7675,1.7677,0,0,0,0,0,0,1.7386,1.7395,1.7468,1.7434,1.7444,1.7458,1.7479,1.748,1.7493,1.7509,1.7511,1.7495,1.7526,1.7532,1.7571,1.7592,1.7553,1.7556,1.7672,1.7674,1.7676,1.7699,0,0,0,0,0,0,1.7383,1.7394,1.7412,1.7435,1.7445,1.7503,1.748,1.7482,1.7499,1.7497,1.7519,1.7522,1.7525,1.7566,1.7574,1.7595,1.7558,1.767,1.7673,1.7676,1.7697,1.7702,1.7707,0,0,0,0,0,1.7379,1.7416,1.7413,1.7422,1.7468,1.7504,1.751,1.7514,1.75,1.7518,1.7528,1.7521,1.7589,1.757,1.7579,1.7601,1.7669,1.7672,1.7675,1.7695,1.7701,1.7707,0,0,0,0,0,0,1.7393,1.7419,1.7416,1.7461,1.7481,1.7502,1.7525,1.7521,1.7544,1.7541,1.7545,1.755,1.7589,1.7599,1.7578,1.7646,1.7626,1.7632,1.7638,1.7645,1.7649,1.7646,1.7561,0,0,0,0,0,1.7402,1.743,1.745,1.7488,1.7499,1.751,1.7526,1.7528,1.7548,1.7555,1.7568,1.7587,1.7613,1.7629,1.7653,1.7698,1.7703,1.7718,1.7723,1.7727,1.7731,1.7755,1.7762,1.7688,1.7688,1.7688,0,0,1.742,1.7437,1.7454,1.7492,1.7507,1.7535,1.7517,1.7547,1.7568,1.756,1.7597,1.7607,1.7628,1.767,1.7689,1.768,1.7753,1.7731,1.7734,1.7736,1.7759,1.7766,1.7773,1.769,1.769,1.7689,0,0,1.7466,1.7483,1.7516,1.7532,1.7556,1.7564,1.7572,1.7594,1.7601,1.7639,1.7633,1.7657,1.7701,1.7716,1.773,1.7783,1.7776,1.779,1.7816,1.7839,1.7845,1.785,1.7869,1.7875,1.7795,1.7795,1.7795,0,1.7485,1.7528,1.7534,1.7565,1.7581,1.7576,1.7609,1.7624,1.7655,1.7665,1.7655,1.771,1.7724,1.7769,1.7782,1.7793,1.7802,1.7788,1.7844,1.7849,1.7854,1.7872,1.7879,1.7796,1.7796,1.7796,1.7796,0,1.755,1.758,1.7603,1.7634,1.7653,1.7685,1.7694,1.7713,1.7713,1.7721,1.776,1.7776,1.7804,1.7815,1.7815,1.786,1.7853,1.7844,1.7824,1.7863,1.7879,1.7886,1.7798,1.7798,1.7797,1.7797,0,0,1.7606,1.764,1.7648,1.7662,1.7689,1.7711,1.7743,1.7771,1.7786,1.7807,1.7833,1.7871,1.7862,1.7877,1.7879,1.79,1.794,1.7887,1.7888,1.7896,1.799,1.7997,1.8005,1.7936,1.7938,1.7939,1.7988,0,1.7654,1.7711,1.7717,1.7767,1.7795,1.7791,1.7818,1.7837,1.7845,1.7869,1.7878,1.7905,1.7891,1.79,1.7921,1.7931,1.7959,1.7927,1.7959,1.796,1.7954,1.8013,1.8021,1.8067,1.7995,1.7996,1.7996,0,1.7718,1.7743,1.7796,1.7819,1.783,1.7855,1.7881,1.7904,1.7925,1.793,1.7947,1.7946,1.7978,1.7957,1.8,1.7979,1.7992,1.7999,1.8001,1.8003,1.798,1.8017,1.8081,1.8088,1.8007,1.8006,1.8005,0,1.7753,1.7799,1.7837,1.7849,1.7877,1.7894,1.7906,1.7926,1.7942,1.7965,1.7975,1.8001,1.8015,1.8034,1.804,1.8024,1.8082,1.8062,1.8086,1.8086,1.8098,1.8097,1.8165,1.8108,1.8108,1.8108,1.8107,0,1.7806,1.7839,1.7853,1.7876,1.7913,1.7919,1.7954,1.7965,1.7983,1.8007,1.8005,1.8028,1.8034,1.8058,1.8063,1.8097,1.8103,1.8107,1.8108,1.8107,1.8107,1.8116,1.8112,1.8109,1.8109,1.8109,1.8108,0,1.7851,1.7862,1.7903,1.7926,1.7933,1.7958,1.7978,1.8,1.8008,1.8039,1.8047,1.806,1.8088,1.8096,1.8129,1.8132,1.8172,1.817,1.8166,1.8165,1.8189,1.8186,1.8264,1.8274,1.8211,1.8212,1.8212,0,1.7884,1.7909,1.7935,1.7952,1.7965,1.7993,1.801,1.8017,1.8035,1.8061,1.8079,1.8107,1.8129,1.8174,1.8186,1.8211,1.8209,1.8235,1.8213,1.8211,1.8209,1.8207,1.8209,1.8238,1.8239,1.824,1.824,0,1.794,1.7945,1.797,1.7998,1.8019,1.8041,1.8062,1.8075,1.8085,1.8105,1.8134,1.8152,1.8187,1.8214,1.824,1.8251,1.8247,1.8247,1.8254,1.8253,1.8249,1.8251,1.8176,1.8245,1.8245,1.8244,1.8244,1.8244,1.798,1.8002,1.8024,1.8053,1.8069,1.8089,1.8111,1.8123,1.8148,1.8177,1.818,1.8211,1.8231,1.8265,1.8278,1.8302,1.8294,1.8304,1.8306,1.8308,1.831,1.8246,1.8306,1.8306,1.8306,1.8306,1.8306,0,1.8036,1.805,1.8076,1.8106,1.8129,1.8125,1.8148,1.8166,1.8194,1.8214,1.8237,1.827,1.8297,1.8311,1.8337,1.8353,1.8352,1.836,1.8358,1.8361,1.8316,1.8307,1.8361,1.8361,1.8361,1.836,1.836,1.836,1.8067,1.8105,1.8112,1.8157,1.8171,1.8203,1.8216,1.8234,1.825,1.8288,1.831,1.832,1.8337,1.8365,1.8389,1.8392,1.8401,1.841,1.8412,1.837,1.8364,1.8359,1.8351,1.8412,1.8412,1.8456,1.8456,1.8456]}]]